Weather in Podsolnechnoye

Russia / Samara Oblast     53°09′02″N   52°01′05″E
temp.,
°C
wind,
m/s
gust,
m/s
humid.,
%
clouds,
%
prec.,
mm/h
press.,
hPa
HPBL,
m
28 february, sun
sun2801:00−6nw5797100 1.6 998157
04:00−11nnw5895100 1.9 999208
07:00−13nw5995100 0.1 1001263
10:00−13nw699599 0.3 1003324
13:00−11nw6994100 0.1 1005418
16:00−10nw6993100 0.2 1007519
19:00−12nw5995100 0.2 1010387
22:00−14nw489699 0.4 1012225
1 march, mon
mon101:00−15nw479695 0.2 1014213
04:00−17nw479792 0.3 1016183
07:00−19nw359893 0.1 1018111
10:00−18nw459586 0.1 1020188
13:00−16nw359436 0.0 1021257
16:00−16nw469463 0.0 1022313
19:00−20wnw339950 0.0 102220
22:00−21w2210025 0.0 102220
2 march, tue
tue201:00−21sw339951 0.0 102129
04:00−21ssw4610064 0.0 1018100
07:00−17ssw61098100 0.0 1015241
10:00−13ssw71294100 0.2 1013380
13:00−8ssw81394100 0.8 1009604
16:00−6ssw81495100 2.1 1006746
19:00−4ssw71495100 1.4 1003680
22:00−3ssw61296100 2.3 1001516
3 march, wed
wed301:00−3ssw4997100 0.9 999337
04:00−2w4897100 1.4 999320
07:00−6w359796 0.2 999125
10:00−3w479698 0.3 1001378
13:00−1nw579299 0.2 1002644
16:00−2nw5892100 0.3 1003527
19:00−4nw359893 0.3 1004170
22:00−5nw389696 0.3 1006205
4 march, thu
thu401:00−6nw489690 0.2 1007251
04:00−8nw5109589 0.4 1009305
07:00−11nw4997100 0.1 1011178
10:00−10wnw479698 0.1 1013255
13:00−8wsw4794100 0.0 1014355
16:00−7sw61093100 0.1 1014459
19:00−9sw71495100 0.0 1012391
22:00−6sw81593100 0.2 1011710